sat.trackr.live / text

‹ back to catalog

STARLINK-11482 [DTC]

NORAD 62520 · 2025-004K

PAYLOAD ACTIVE UNKNOWN

§ Identity

Operator
Country
US
Launch date
2025-01-08
Launch site
AFETR
Launch vehicle
Mass (kg)
RCS (m²)

Purposes: comms

External: N2YO · Heavens-Above · Gunter

§ Orbital elements

Epoch: 2026-09-21T11:19:08.665248Z

Period
91.67 min
Inclination
42.9987°
Eccentricity
0.0000812
Mean motion
15.70868982 rev/d
Perigee alt
355.9 km
Apogee alt
357.0 km
Semi-major
6,734.5 km
B*
1.0019e-3
RAAN
330.2893°
Arg perigee
231.6635°
Mean anomaly
128.4160°
Rev number
9,800

§ Raw data

STARLINK-11482 [DTC]1 62520U 25004K   26264.47162807  .00130297  00000+0  10019-2 0  99952 62520  42.9987 330.2893 0000812 231.6635 128.4160 15.70868982 98004

JSON: /api/v1/satellites/62520 · /tle

For live sub-satellite position, see the globe view (requires WebGL).

§ Visibility from observer

Set your observer location to see the next 7 days of passes ≥ 10°. The values pass through the URL so the page stays shareable.

No JS? Fill the form by hand. The geolocation button needs JavaScript.